Location: Widewater Village at Stafford
(38.4893°N, 77.3783°W)
Time: 14:55:57
(UTC+00:00)

BlueWalker 3 - Visible Passes

Search period start: 04 December 2022 00:00
Search period end: 14 December 2022 00:00
Orbit: 501 x 519 km, 53.2° (Epoch: 04 December)

Date Brightness Start Highest point End Pass type
(mag) Time Alt. Az. Time Alt. Az. Time Alt. Az.
04 Dec 4.3 23:25:12 10° N 23:26:02 12° N 23:26:02 12° N visible
05 Dec 4.1 23:06:44 10° N 23:08:28 12° NNE 23:08:30 12° NNE visible
06 Dec 4.0 22:48:17 10° NNW 22:50:06 13° NNE 22:51:01 12° NNE visible
07 Dec 4.0 22:29:49 10° NNW 22:31:45 13° NNE 22:33:39 10° NE visible
08 Dec 4.3 00:07:26 10° NW 00:08:29 17° NNW 00:08:29 17° NNW visible
08 Dec 3.3 23:49:01 10° NW 23:51:16 30° NNW 23:51:16 30° NNW visible
09 Dec 2.1 23:30:35 10° NW 23:34:14 53° NNE 23:34:14 53° NNE visible
10 Dec 2.0 23:12:09 10° NW 23:16:01 58° NE 23:17:28 33° ESE visible
11 Dec 5.2 00:51:51 10° W 00:52:22 12° W 00:52:22 12° W visible
11 Dec 1.9 22:53:43 10° NW 22:57:36 62° NE 23:01:05 12° ESE visible
12 Dec 4.8 00:33:36 10° W 00:35:50 15° SW 00:36:01 15° SW visible
12 Dec 1.9 22:35:17 10° NW 22:39:10 67° NE 22:43:01 10° ESE visible
13 Dec 5.0 00:15:22 10° W 00:17:22 14° SW 00:19:24 10° SSW visible
13 Dec 1.9 22:16:50 10° NW 22:20:44 72° NE 22:24:36 10° SE visible
